SHT47CW EGPF-EGLL

Flight info

Callsign SHT47CW
Flight time 0h 57m
Altitude 33000
Route NORBO T256 RIPNO DCT AKOMU DCT VAMEB DCT NUGRA
Aircraft A320/M-SDE3FGHIRWY/LB1

Departure

Time 2026-05-04 13:52
Airport Glasgow Airport (EGPF)

Arrival

Time 2026-05-04 14:49
Airport London Heathrow Airport (EGLL)
Time Latitude Longitude Altitude Speed Heading
2026-05-04 13:42 55.86713 -4.43370 31 ft 0 kts 237°
2026-05-04 13:44 55.86720 -4.43350 33 ft 4 kts 239°
2026-05-04 13:44 55.86732 -4.43307 33 ft 4 kts 254°
2026-05-04 13:44 55.86733 -4.43266 33 ft 4 kts 316°
2026-05-04 13:45 55.86728 -4.43258 33 ft 0 kts 344°
2026-05-04 13:47 55.86738 -4.43263 32 ft 3 kts 344°
2026-05-04 13:48 55.86766 -4.43277 33 ft 6 kts 345°
2026-05-04 13:48 55.86806 -4.43245 32 ft 8 kts 57°
2026-05-04 13:48 55.86821 -4.43139 31 ft 10 kts 74°
2026-05-04 13:48 55.86845 -4.43006 33 ft 12 kts 66°
2026-05-04 13:49 55.86916 -4.42908 33 ft 14 kts 26°
2026-05-04 13:49 55.87017 -4.42828 33 ft 17 kts 21°
2026-05-04 13:49 55.87137 -4.42749 32 ft 17 kts 21°
2026-05-04 13:49 55.87244 -4.42673 34 ft 16 kts 21°
2026-05-04 13:50 55.87353 -4.42601 34 ft 17 kts 20°
2026-05-04 13:50 55.87447 -4.42470 35 ft 17 kts 46°
2026-05-04 13:50 55.87532 -4.42312 33 ft 19 kts 46°
2026-05-04 13:50 55.87627 -4.42133 32 ft 22 kts 46°
2026-05-04 13:51 55.87735 -4.41933 31 ft 22 kts 46°
2026-05-04 13:51 55.87865 -4.41847 30 ft 22 kts 354°
2026-05-04 13:51 55.87905 -4.41991 32 ft 15 kts 237°
2026-05-04 13:51 55.87789 -4.42210 33 ft 51 kts 226°
2026-05-04 13:52 55.86739 -4.44201 120 ft 151 kts 229°
2026-05-04 13:52 55.86076 -4.45559 827 ft 146 kts 231°
2026-05-04 13:52 55.85350 -4.46893 1395 ft 157 kts 229°
2026-05-04 13:53 55.84520 -4.48349 1764 ft 179 kts 227°
2026-05-04 13:53 55.83576 -4.50001 2103 ft 201 kts 227°
2026-05-04 13:53 55.82526 -4.51843 2500 ft 225 kts 227°
2026-05-04 13:54 55.80128 -4.56056 4031 ft 251 kts 227°
2026-05-04 13:54 55.78868 -4.58261 5021 ft 257 kts 227°
2026-05-04 13:54 55.76289 -4.62779 6928 ft 264 kts 227°
2026-05-04 13:55 55.74972 -4.65087 7841 ft 268 kts 227°
2026-05-04 13:55 55.72287 -4.69800 9628 ft 276 kts 227°
2026-05-04 13:55 55.70895 -4.72203 10336 ft 287 kts 226°
2026-05-04 13:56 55.69304 -4.74558 10611 ft 312 kts 212°
2026-05-04 13:56 55.67187 -4.75723 11157 ft 328 kts 187°
2026-05-04 13:56 55.62538 -4.75970 12595 ft 340 kts 179°
2026-05-04 13:57 55.60189 -4.75236 13315 ft 348 kts 165°
2026-05-04 13:57 55.57949 -4.73539 14016 ft 355 kts 152°
2026-05-04 13:58 55.52004 -4.65326 15890 ft 367 kts 142°
2026-05-04 13:58 55.47995 -4.59590 17141 ft 375 kts 142°
2026-05-04 13:58 55.45957 -4.56687 17780 ft 378 kts 142°
2026-05-04 13:59 55.43896 -4.53760 18407 ft 382 kts 142°
2026-05-04 13:59 55.41817 -4.50813 18975 ft 385 kts 142°
2026-05-04 13:59 55.37616 -4.44861 20128 ft 391 kts 142°
2026-05-04 14:00 55.35488 -4.41843 20692 ft 394 kts 142°
2026-05-04 14:00 55.31218 -4.35793 21741 ft 400 kts 142°
2026-05-04 14:00 55.29013 -4.32688 22244 ft 403 kts 142°
2026-05-04 14:01 55.26817 -4.29602 22769 ft 406 kts 141°
2026-05-04 14:01 55.24607 -4.26502 23294 ft 409 kts 141°
2026-05-04 14:01 55.20136 -4.20243 24218 ft 414 kts 141°
2026-05-04 14:02 55.17899 -4.17047 24633 ft 417 kts 137°
2026-05-04 14:02 55.15886 -4.13467 25039 ft 419 kts 133°
2026-05-04 14:02 55.13854 -4.09694 25467 ft 422 kts 133°
2026-05-04 14:02 55.11860 -4.06011 25887 ft 424 kts 133°
2026-05-04 14:03 55.09823 -4.02264 26315 ft 427 kts 133°
2026-05-04 14:03 55.07770 -3.98502 26733 ft 429 kts 133°
2026-05-04 14:03 55.05704 -3.94723 27157 ft 432 kts 133°
2026-05-04 14:03 55.03625 -3.90922 27564 ft 434 kts 133°
2026-05-04 14:04 54.99437 -3.83257 28363 ft 439 kts 133°
2026-05-04 14:04 54.97324 -3.79397 28757 ft 442 kts 133°
2026-05-04 14:04 54.95166 -3.75549 29150 ft 445 kts 136°
2026-05-04 14:05 54.90075 -3.69294 29929 ft 452 kts 148°
2026-05-04 14:05 54.87386 -3.66453 30293 ft 454 kts 148°
2026-05-04 14:05 54.84683 -3.63596 30648 ft 456 kts 148°
2026-05-04 14:06 54.81970 -3.60725 31010 ft 458 kts 148°
2026-05-04 14:06 54.79245 -3.57837 31381 ft 459 kts 147°
2026-05-04 14:06 54.76526 -3.54949 31855 ft 457 kts 147°
2026-05-04 14:06 54.73823 -3.52086 32405 ft 454 kts 148°
2026-05-04 14:07 54.71127 -3.49239 32895 ft 453 kts 148°
2026-05-04 14:07 54.68446 -3.46413 33033 ft 449 kts 147°
2026-05-04 14:07 54.65815 -3.43644 33060 ft 438 kts 147°
2026-05-04 14:08 54.60656 -3.38225 33063 ft 432 kts 147°
2026-05-04 14:08 54.55529 -3.32866 33060 ft 430 kts 147°
2026-05-04 14:09 54.47848 -3.24856 33056 ft 429 kts 147°
2026-05-04 14:10 54.40195 -3.16896 33059 ft 429 kts 147°
2026-05-04 14:10 54.35088 -3.11624 33069 ft 428 kts 147°
2026-05-04 14:11 54.29982 -3.06357 33072 ft 428 kts 147°
2026-05-04 14:11 54.22337 -2.98502 33077 ft 427 kts 147°
2026-05-04 14:12 54.17271 -2.93372 33079 ft 427 kts 150°
2026-05-04 14:13 54.09091 -2.87296 33082 ft 427 kts 154°
2026-05-04 14:13 54.03618 -2.83328 33090 ft 426 kts 154°
2026-05-04 14:14 53.98085 -2.79714 33093 ft 427 kts 160°
2026-05-04 14:14 53.89573 -2.75211 33096 ft 427 kts 160°
2026-05-04 14:15 53.79193 -2.69742 33097 ft 425 kts 159°
2026-05-04 14:16 53.70720 -2.65296 33098 ft 425 kts 159°
2026-05-04 14:17 53.62312 -2.60902 33088 ft 424 kts 159°
2026-05-04 14:18 53.53867 -2.56505 33089 ft 423 kts 159°
2026-05-04 14:19 53.42616 -2.50662 33096 ft 423 kts 159°
2026-05-04 14:19 53.36991 -2.47762 33100 ft 423 kts 159°
2026-05-04 14:20 53.31360 -2.44867 33102 ft 423 kts 159°
2026-05-04 14:20 53.25729 -2.41986 33097 ft 423 kts 159°
2026-05-04 14:21 53.17288 -2.37669 33093 ft 423 kts 159°
2026-05-04 14:21 53.11656 -2.34800 33089 ft 423 kts 159°
2026-05-04 14:22 53.06028 -2.31942 33092 ft 423 kts 159°
2026-05-04 14:22 53.00712 -2.28054 33089 ft 415 kts 143°
2026-05-04 14:23 52.93413 -2.20347 33083 ft 415 kts 144°
2026-05-04 14:24 52.88516 -2.15219 33079 ft 424 kts 144°
2026-05-04 14:24 52.86006 -2.12595 32945 ft 427 kts 144°
2026-05-04 14:24 52.83491 -2.09973 32331 ft 426 kts 145°
2026-05-04 14:24 52.80987 -2.07372 31782 ft 423 kts 145°
2026-05-04 14:25 52.78499 -2.04790 31272 ft 420 kts 145°
2026-05-04 14:25 52.73589 -1.99703 30281 ft 414 kts 146°
2026-05-04 14:25 52.71158 -1.97188 29733 ft 410 kts 146°
2026-05-04 14:26 52.68754 -1.94701 29181 ft 407 kts 146°
2026-05-04 14:26 52.66369 -1.92235 28673 ft 403 kts 147°
2026-05-04 14:26 52.64005 -1.89797 28177 ft 398 kts 147°
2026-05-04 14:26 52.61672 -1.87391 27793 ft 392 kts 147°
2026-05-04 14:27 52.59372 -1.85022 27388 ft 387 kts 147°
2026-05-04 14:27 52.57096 -1.82685 26993 ft 383 kts 148°
2026-05-04 14:27 52.54846 -1.80379 26586 ft 379 kts 148°
2026-05-04 14:27 52.52616 -1.78095 26184 ft 376 kts 148°
2026-05-04 14:28 52.50401 -1.75829 25776 ft 373 kts 148°
2026-05-04 14:28 52.48203 -1.73582 25362 ft 371 kts 149°
2026-05-04 14:28 52.46019 -1.71348 24949 ft 368 kts 149°
2026-05-04 14:28 52.43853 -1.69132 24523 ft 366 kts 149°
2026-05-04 14:29 52.39548 -1.64734 23670 ft 363 kts 149°
2026-05-04 14:29 52.35319 -1.60446 22796 ft 356 kts 149°
2026-05-04 14:30 52.33224 -1.58325 22372 ft 352 kts 149°
2026-05-04 14:30 52.31128 -1.56202 21956 ft 348 kts 149°
2026-05-04 14:30 52.27046 -1.52073 21129 ft 342 kts 149°
2026-05-04 14:31 52.25056 -1.50061 20734 ft 340 kts 149°
2026-05-04 14:31 52.21123 -1.45886 19936 ft 336 kts 141°
2026-05-04 14:32 52.17624 -1.40989 19276 ft 328 kts 140°
2026-05-04 14:32 52.15900 -1.38577 18943 ft 325 kts 141°
2026-05-04 14:32 52.14190 -1.36191 18616 ft 323 kts 141°
2026-05-04 14:32 52.12487 -1.33818 18276 ft 321 kts 141°
2026-05-04 14:33 52.10791 -1.31463 17929 ft 320 kts 141°
2026-05-04 14:33 52.09077 -1.29088 17596 ft 318 kts 141°
2026-05-04 14:33 52.07397 -1.26757 17265 ft 317 kts 141°
2026-05-04 14:33 52.05725 -1.24437 16957 ft 315 kts 141°
2026-05-04 14:34 52.04062 -1.22126 16638 ft 314 kts 141°
2026-05-04 14:34 52.02408 -1.19827 16314 ft 312 kts 141°
2026-05-04 14:34 52.00778 -1.17572 16003 ft 311 kts 141°
2026-05-04 14:34 51.99132 -1.15302 15682 ft 310 kts 141°
2026-05-04 14:35 51.97492 -1.13042 15366 ft 309 kts 141°
2026-05-04 14:35 51.95856 -1.10784 15054 ft 308 kts 141°
2026-05-04 14:35 51.94213 -1.08518 14477 ft 315 kts 141°
2026-05-04 14:35 51.92518 -1.06186 13818 ft 323 kts 141°
2026-05-04 14:36 51.90787 -1.03811 13244 ft 326 kts 141°
2026-05-04 14:36 51.89073 -1.01456 12935 ft 320 kts 141°
2026-05-04 14:36 51.87404 -0.99159 12799 ft 310 kts 141°
2026-05-04 14:36 51.85816 -0.96885 12664 ft 301 kts 135°
2026-05-04 14:37 51.84638 -0.94148 12535 ft 295 kts 118°
2026-05-04 14:37 51.83757 -0.91212 12394 ft 286 kts 117°
2026-05-04 14:37 51.82896 -0.88358 12255 ft 278 kts 118°
2026-05-04 14:37 51.82049 -0.85573 12038 ft 274 kts 118°
2026-05-04 14:38 51.81203 -0.82813 11752 ft 273 kts 118°
2026-05-04 14:38 51.80361 -0.80069 11463 ft 272 kts 118°
2026-05-04 14:38 51.79519 -0.77334 11193 ft 271 kts 118°
2026-05-04 14:38 51.78680 -0.74609 10916 ft 270 kts 118°
2026-05-04 14:39 51.77847 -0.71901 10647 ft 269 kts 118°
2026-05-04 14:39 51.77014 -0.69195 10381 ft 268 kts 118°
2026-05-04 14:39 51.76185 -0.66507 10106 ft 267 kts 118°
2026-05-04 14:40 51.74558 -0.61422 9225 ft 278 kts 121°
2026-05-04 14:40 51.73630 -0.58734 9094 ft 270 kts 121°
2026-05-04 14:40 51.72727 -0.56131 8982 ft 262 kts 121°
2026-05-04 14:40 51.71851 -0.53596 8832 ft 256 kts 121°
2026-05-04 14:41 51.70990 -0.51099 8584 ft 254 kts 121°
2026-05-04 14:41 51.70133 -0.48615 8324 ft 252 kts 121°
2026-05-04 14:41 51.68434 -0.43698 7787 ft 250 kts 121°
2026-05-04 14:42 51.66744 -0.38825 7263 ft 248 kts 121°
2026-05-04 14:42 51.65907 -0.36405 6982 ft 247 kts 121°
2026-05-04 14:42 51.65074 -0.34006 6725 ft 244 kts 121°
2026-05-04 14:43 51.64183 -0.31686 6431 ft 243 kts 126°
2026-05-04 14:43 51.63236 -0.29424 6117 ft 243 kts 126°
2026-05-04 14:43 51.62279 -0.27199 5824 ft 241 kts 127°
2026-05-04 14:43 51.61079 -0.25381 5524 ft 237 kts 154°
2026-05-04 14:44 51.59505 -0.24769 5204 ft 234 kts 177°
2026-05-04 14:44 51.57886 -0.24705 4836 ft 229 kts 181°
2026-05-04 14:44 51.56351 -0.24718 4703 ft 213 kts 181°
2026-05-04 14:44 51.54923 -0.24741 4565 ft 198 kts 181°
2026-05-04 14:45 51.53572 -0.24760 4284 ft 191 kts 178°
2026-05-04 14:45 51.52275 -0.24362 3831 ft 191 kts 165°
2026-05-04 14:45 51.50966 -0.23999 3372 ft 191 kts 172°
2026-05-04 14:45 51.49649 -0.24073 2921 ft 191 kts 197°
2026-05-04 14:46 51.48523 -0.25141 2472 ft 189 kts 227°
2026-05-04 14:46 51.47887 -0.26928 2147 ft 181 kts 258°
2026-05-04 14:46 51.47794 -0.28858 1944 ft 170 kts 272°
2026-05-04 14:46 51.47792 -0.30744 1708 ft 168 kts 272°
2026-05-04 14:47 51.47643 -0.32590 1588 ft 163 kts 257°
2026-05-04 14:47 51.47315 -0.33993 1418 ft 151 kts 247°
2026-05-04 14:47 51.46899 -0.35566 1156 ft 145 kts 252°
2026-05-04 14:47 51.46634 -0.37109 959 ft 142 kts 262°
2026-05-04 14:48 51.46570 -0.38676 745 ft 140 kts 274°
2026-05-04 14:48 51.46530 -0.40222 562 ft 139 kts 266°
2026-05-04 14:48 51.46497 -0.41745 348 ft 136 kts 276°
2026-05-04 14:48 51.46521 -0.43270 217 ft 137 kts 270°
2026-05-04 14:49 51.46494 -0.44793 104 ft 137 kts 270°
2026-05-04 14:49 51.46488 -0.46120 87 ft 96 kts 269°
2026-05-04 14:49 51.46533 -0.46714 91 ft 29 kts 294°
2026-05-04 14:49 51.46613 -0.46867 89 ft 16 kts 326°
2026-05-04 14:50 51.46656 -0.47032 88 ft 18 kts 274°
2026-05-04 14:50 51.46656 -0.47250 87 ft 21 kts 270°
2026-05-04 14:50 51.46655 -0.47503 87 ft 24 kts 270°
2026-05-04 14:50 51.46654 -0.47787 87 ft 27 kts 269°
2026-05-04 14:51 51.46653 -0.48095 87 ft 28 kts 269°
2026-05-04 14:51 51.46650 -0.48376 87 ft 21 kts 271°
2026-05-04 14:51 51.46765 -0.48470 87 ft 22 kts 359°
2026-05-04 14:51 51.46889 -0.48472 88 ft 12 kts 359°
2026-05-04 14:52 51.46922 -0.48473 87 ft 2 kts 359°
2026-05-04 14:52 51.46945 -0.48473 87 ft 5 kts 359°
2026-05-04 14:52 51.46970 -0.48474 89 ft 4 kts 359°
2026-05-04 14:52 51.46983 -0.48474 87 ft 3 kts 359°
2026-05-04 14:53 51.47017 -0.48474 87 ft 6 kts
2026-05-04 14:53 51.47073 -0.48479 87 ft 10 kts 355°
2026-05-04 14:53 51.47125 -0.48476 87 ft 0 kts
2026-05-04 14:53 51.47130 -0.48476 87 ft 0 kts
2026-05-04 14:54 51.47140 -0.48475 87 ft 3 kts
2026-05-04 14:54 51.47172 -0.48474 87 ft 6 kts 359°
2026-05-04 14:54 51.47206 -0.48475 87 ft 8 kts 359°
2026-05-04 14:54 51.47276 -0.48475 87 ft 12 kts 359°
2026-05-04 14:55 51.47367 -0.48476 87 ft 8 kts 360°
2026-05-04 14:55 51.47399 -0.48525 88 ft 8 kts 275°
2026-05-04 14:55 51.47399 -0.48591 87 ft 0 kts 270°